This is the latest recevied weather packets stored in our database for station/object F1ZFG-13. If no packets are shown the sender has not sent any weather packets the latest 10 day(s).
| Time | Temp. | Humidity | Pressure | Rain* | Wind** | Luminosity | Snow |
|---|---|---|---|---|---|---|---|
| 1777563296 | 23.33° C | 34% | 1016.7 hPa | 0 mm | - | - | - |
| 1777560085 | 23.33° C | 34% | 1016.9 hPa | 0 mm | - | - | - |
| 1777556895 | 23.33° C | 34% | 1017.2 hPa | 0 mm | - | - | - |
| 1777553600 | 22.22° C | 43% | 1017.1 hPa | 0 mm | - | - | - |
| 1777550017 | 21.11° C | 46% | 1017.6 hPa | 0 mm | - | - | - |
| 1777546716 | 19.44° C | 51% | 1017.9 hPa | 0 mm | - | - | - |
| 1777543431 | 19.44° C | 51% | 1017.9 hPa | 0 mm | - | - | - |
| 1777540141 | 17.78° C | 55% | 1018.4 hPa | 0 mm | - | - | - |
| 1777537212 | 15.56° C | 62% | 1018.3 hPa | 0 mm | - | - | - |
| 1777533811 | 13.89° C | 72% | 1018.3 hPa | 0 mm | - | - | - |
| 1777530296 | 11.67° C | 89% | 1017.7 hPa | 0 mm | - | - | - |
| 1777526786 | 10.56° C | 95% | 1017.3 hPa | 0 mm | - | - | - |
| 1777523900 | 10.56° C | 95% | 1016.7 hPa | 0 mm | - | - | - |
| 1777520875 | 11.67° C | 93% | 1016.5 hPa | 0 mm | - | - | - |
| 1777517976 | 12.22° C | 93% | 1016.8 hPa | 0 mm | - | - | - |
| 1777514934 | 12.22° C | 93% | 1016.8 hPa | 0 mm | - | - | - |
| 1777511462 | 12.78° C | 89% | 1016.4 hPa | 0 mm | - | - | - |
| 1777508480 | 13.89° C | 87% | 1015.9 hPa | 0 mm | - | - | - |
| 1777505482 | 14.44° C | 86% | 1016 hPa | 0 mm | - | - | - |
| 1777502049 | 15.56° C | 80% | 1015.6 hPa | 0 mm | - | - | - |
| 1777498886 | 16.67° C | 76% | 1015.5 hPa | 0 mm | - | - | - |
| 1777495496 | 17.22° C | 73% | 1014.9 hPa | 0 mm | - | - | - |
| 1777492575 | 17.78° C | 72% | 1014.1 hPa | 0 mm | - | - | - |
| 1777489182 | 18.89° C | 67% | 1013.8 hPa | 0 mm | - | - | - |
| 1777485721 | 18.89° C | 67% | 1013.8 hPa | 0 mm | - | - | - |
* Rain latest hour (hover to see other rain measurements)
** Current wind speed in m/s (hover to see current wind gust speed)